COSMOS 2251 DEB, 34116

Orbit data source: Space-Track

COSMOS 2251 DEB, 34116 is space debris in LEO originally from a launch on Wed, 16 Jun 1993 UTC launched from the Plesetsk Missile And Space Complex (PKMTR). The debris from Iridium 33, an American commercial communications satellite, has been tracked extensively since its accidental collision with the defunct Russian satellite Cosmos 2251 in 2009. This event, occurring at high speed in low Earth orbit (LEO), generated thousands of pieces of space debris, significantly increasing the risk of further collisions. The Iridium 33 debris cloud has impacted space traffic management and orbital debris mitigation strategies, making it a subject of ongoing study in space situational awareness.

Loading next visibility...
Identifier
34116, 1993-036KM
Orbit
LEO
Country
Flag of CISCIS
Related business
Manufacturer
Unknown
Mission
Spacecraft
Bus & Motor
Unknown
Mass
Unknown
Launch date (UTC)
1993-06-16 (32 years ago)
Launch vehicle
Unknown
Launch site
Plesetsk Missile And Space Complex (PKMTR)
Object type
Payload
Rocket body
Debris
Shape & HBR
Unknown shape, 0.2 m
Radar Cross Section
Small (<0.1 m²)

Expand to show TLE details & history
Last TLE update: 14 hours ago

TLE from 14 hours ago
0 COSMOS 2251 DEB
1 34116U 93036KM  25340.65087465  .00005100  00000-0  12426-2 0  9994
2 34116  74.0399 194.2606 0012215 270.3620 156.2580 14.52925996883983
Epoch: 2025-12-06T15:37Z
TLE epoch observation values (Epoch: 2025-12-06T15:37:15.569Z)
Latitude
62.09615°
Longitude
-83.23887°
Altitude
734.332 km
Speed
7.49 km/s
True Right ascension
15h 07m 00s
True Declination
61° 57' 11"
Sunlit
Object was in daylight at epoch
Visualization orbit readout
Latitude
Unknown
Longitude
Unknown
Altitude
Unknown
Speed
Unknown
Apparent Right ascension
Unknown
Apparent Declination
Unknown
Sunlit
N/A
Visualization observer readout
Local Sidereal Time
03:38:32
Azimuth
Unknown
Elevation
Unknown
Doppler factor
Unknown
Orbital elements
Apogee altitude
722.376 km
Perigee altitude
705.05 km
Semi-major axis
7,091.85 km
Eccentricity
0.00122
Inclination
74.0399°
RAAN
194.2606°
Arg. of periapsis
270.362°
True anomaly
156.31428°
Mean anomaly
156.258°
Eccentric anomaly
156.28615°
Mean motion
3.63416 °/min
Orbital period
99.06 mins
BSTAR
0.0012426

Documentation

Showing up to 5 results
|